Location: Mascot Post Office (historical)
(40.2645°N, 99.5462°W)
Time: 06:38:22
(UTC+00:00)

ATLAS 2AS CENTAUR R/B - Pass Details

Date: 14 July 2020
Orbit: 930 x 1282 km, 63.7° (Epoch: 19 July)

Event Time Altitude Azimuth Distance (km) Brightness Sun altitude
Rises 03:26:38 0° 327° (NNW) 4,160 7.5 -12.9°
Reaches altitude 10° 03:29:33 10° 331° (NNW) 3,150 6.4 -13.3°
Maximum altitude 03:37:00 61° 51° (NE) 1,277 3.1 -14.3°
Enters shadow 03:41:53 20° 126° (SE) 2,248 3.8 -15.0°
